Regional Weather Roundup
Issued by NWS

Current Version | Previous Version | Text Only | Print | Product List | Glossary On
Versions: 1 2 3 4 5 6 7 8 9 10 11 12 13 14 15 16 17 18 19 20 21 22 23 24 25 26 27 28 29 30 31 32 33 34 35 36 37 38 39 40 41 42 43 44 45 46 47 48 49 50
000
ASUS44 KFWD 271515
RWRTX
NORTH TEXAS HOURLY WEATHER ROUNDUP
NATIONAL WEATHER SERVICE FORT WORTH TX
1000 AM CDT FRI MAR 27 2015

NOTE: "FAIR" INDICATES FEW OR NO CLOUDS BELOW 12,000 FEET WITH NO
SIGNIFICANT WEATHER AND/OR OBSTRUCTIONS TO VISIBILITY.

TXZ118-119-271600-
DALLAS/FORT WORTH METROPLEX

CITY           SKY/WX    TMP DP  RH WIND       PRES   REMARKS
DFW AIRPORT    PTSUNNY   59  37  44 N10       30.15R
DALLAS LOVE    MOSUNNY   57  38  48 N10       30.16R
FTW MEACHAM    SUNNY     58  37  45 NW12      30.15S
DAL-EXECUTIVE  SUNNY     57  36  45 NW13      30.14R
FTW-ALLIANCE   MOSUNNY   56  35  45 NW14      30.16R
FTW-SPINKS     SUNNY     57  36  44 NW18      30.17R
ARLINGTON      SUNNY     60  33  36 W9        30.14F
GRAND PRAIRIE  SUNNY     57  36  44 MISG      30.16S
MESQUITE       SUNNY     57  54  88 W14       30.16R
LANCASTER      SUNNY     57  37  46 W10       30.15F
$$

TXZ091>094-102>105-117-120-121-131>134-271600-
NORTH CENTRAL TEXAS

CITY           SKY/WX    TMP DP  RH WIND       PRES   REMARKS
SHRMAN/DENISON MOSUNNY   54  44  68 NW7       30.17R
GAINESVILLE    SUNNY     57  37  46 N14       30.18R
BOWIE          SUNNY     55  37  50 NW8       30.18R
BRIDGEPORT     SUNNY     55  38  53 W6        30.19R
DECATUR        SUNNY     53  35  50 NW9       30.17R
DENTON         SUNNY     56  39  53 NW12      30.16R
MCKINNEY       SUNNY     56  40  55 NW12      30.15R
GREENVILLE     MOSUNNY   55  37  50 NW12      30.15R
ROCKWALL       SUNNY     57  38  49 NW10G17   30.14R
TERRELL        SUNNY     59  41  51 W14       30.15R
WAXAHACHIE     SUNNY     57  40  52 W14       30.16S
CLEBURNE       SUNNY     57  37  47 W13       30.17S
GRANBURY         N/A     57  40  52 W10       30.18S
$$

TXZ083>090-098>101-113>116-127>130-139>142-154-155-271600-
WESTERN NORTH TEXAS

CITY           SKY/WX    TMP DP  RH WIND       PRES   REMARKS
WICHITA FALLS  PTSUNNY   57  38  48 N14       30.19R
WF-KICKAPOO    SUNNY     57  37  46 N7        30.21R
VERNON         MOSUNNY   56  30  36 N9        30.21R
ABILENE        SUNNY     56  32  40 NW13      30.22R
ABILENE-DYESS  SUNNY     55  35  47 NW15      30.21R
BRECKENRIDGE   SUNNY     60  33  35 NW8       30.19R HAZE
GRAHAM         SUNNY     55  37  52 NW6       30.18R
MINERAL WELLS  SUNNY     54  38  54 W8        30.16R
STEPHENVILLE   SUNNY     59  32  36 W13       30.20R
COMANCHE       SUNNY     60  34  37 W8        30.19R
BROWNWOOD      SUNNY     54  37  54 CALM      30.22R
COLEMAN        SUNNY     63  33  32 W16       30.20R
BRADY          SUNNY     61  34  36 W12       30.21R
$$

TXZ143>147-156>162-174-175-271600-
CENTRAL TEXAS

CITY           SKY/WX    TMP DP  RH WIND       PRES   REMARKS
WACO           SUNNY     57  40  52 SW7       30.17S
WACO-MCGREGOR  SUNNY     57  41  54 W9        30.18S
HILLSBORO      SUNNY     56  41  57 W6        30.16S
CORSICANA      SUNNY     59  41  51 W12       30.16R
MEXIA          SUNNY     59  40  50 SW8       30.15S
HEARNE         SUNNY     55  42  63 SW6       30.20S
CAMERON        SUNNY     59  41  50 W6        30.19S
TEMPLE         SUNNY     57  37  47 W7        30.17S
KILLEEN        SUNNY     60  32  34 W17       30.17R
KILLEEN-SKYLRK SUNNY     61  37  41 MISG      30.18R
FORT HOOD      SUNNY     63  32  31 W10       30.17R
GATESVILLE     SUNNY     59  37  44 W7        30.20S
HAMILTON       SUNNY     60  33  35 W17       30.20R
LAMPASAS       SUNNY     60  35  37 W9        30.18R
$$

TXZ095>097-106>112-122>126-135>138-148>153-164>167-271600-
EAST TEXAS

CITY           SKY/WX    TMP DP  RH WIND       PRES   REMARKS
SULPHUR SPRNGS MOSUNNY   56  39  52 NW10      30.15S
MOUNT PLEASANT MOSUNNY   56  42  60 W7        30.13S
GILMER         SUNNY     57  35  43 CALM      30.11S
MINEOLA        MOSUNNY   55  36  47 W7        30.15R
TYLER          SUNNY     57  37  47 SW12      30.12R
LONGVIEW       SUNNY     57  36  45 W6        30.12S
MARSHALL         N/A     57  39  50 SW7       30.14S
ATHENS         SUNNY     57  37  47 SW3       30.13S
PALESTINE      SUNNY     59  46  62 SW5       30.17S
JACKSONVILLE   SUNNY     58  34  40 SW8       30.15S
HENDERSON      SUNNY     56  35  46 W6        30.14S
NACOGDOCHES    MOSUNNY   54  39  58 SW6       30.15F
LUFKIN         SUNNY     57  41  55 W5        30.16S
$$

SUPPLEMENTAL OBSERVATIONS (CENTRAL)

CITY           SKY/WX    TMP DP  RH WIND       PRES   REMARKS
LAKE TEXOMA      N/A     52  41  66 NW13        N/A
CADDO GRASSLND   N/A     54  37  54 NW7         N/A
ATHENS           N/A     61  36  39 W6          N/A
LAKE LIMESTONE   N/A     61  39  44 W8          N/A
MCGREGOR         N/A     57  39  51 W9          N/A
TEMPLE           N/A     59  36  41 W10         N/A
$$

SUPPLEMENTAL OBSERVATIONS (WEST)

CITY           SKY/WX    TMP DP  RH WIND       PRES   REMARKS
MILLERS CREEK    N/A     57  36  44 N6          N/A
POSSUM KINGDOM   N/A     55  32  41 NW8         N/A
LBJ GRASSLAND    N/A     55  39  54 NW7         N/A
GRANBURY         N/A     57  37  47 NW12        N/A
COMANCHE         N/A     63  34  34 W15G22      N/A
HAMBY            N/A     55  34  44 W8          N/A
IVIE RESERVOIR   N/A     57  32  38 W13         N/A
COLORADO BEND    N/A     54  36  50 N3          N/A
$$

SUPPLEMENTAL OBSERVATIONS (EAST)

CITY           SKY/WX    TMP DP  RH WIND       PRES   REMARKS
TEXARKANA        N/A     54  34  47 W6          N/A
LINDEN           N/A     55  36  47 W6          N/A
LUFKIN           N/A     59  39  47 MISG        N/A
N SABINE NF      N/A     55  54  94 MISG        N/A
$$

SUPPLEMENTAL OBSERVATIONS ARE A COLLECTION OF AUTOMATED INSTRUMENTS
THAT ARE MAINTAINED BY A VARIETY OF FEDERAL AND STATE AGENCIES.
CERTAIN ELEMENTS...SUCH AS HUMIDITY VALUES AND SUSTAINED WIND
SPEEDS...MAY BE APPROXIMATED.



USA.gov is the U.S. government's official web portal to all federal, state and local government web resources and services.